Hourly Data Report for April 09, 2017

CLYDE RIVER A
NUNAVUT

70°29'09.000" N
68°31'01.000" W
26.50 m
2400804
71090
YCY

Download Data

Hourly Data (April 2017)
Hourly Data Report for April 9, 2017
TIME
LST
Temp Definition
°C
Dew Point Definition
°C
Rel Hum Definition
%
Precip. Amount Definition
mm

Wind Dir Definition
10's deg

Wind Spd Definition
km/h
Visibility Definition
km
Stn Press Definition
kPa
Hmdx Definition


Wind Chill Definition


Weather Definition


00:00 -17.9 -19.8 85 0.0 12 22 16.1 100.98   -28 LegendNANA
01:00 -17.1 -18.6 88 0.0 13 18 16.1 100.96   -26 LegendNANA
02:00 -16.8 -18.4 87 0.0 14 24 16.1 100.94   -27 LegendNANA
03:00 -17.3 -19.1 86 0.0 13 24 16.1 100.93   -28 LegendNANA
04:00 -17.9 -20.0 84 0.0 13 24 16.1 100.92   -29 Snow
05:00 -17.7 -19.4 87 0.0 15 24 16.1 100.89   -28 Snow
06:00 -16.9 -18.4 88 0.0 14 30 16.1 100.89   -29 Snow
07:00 -15.7 -17.3 88 0.0 15 35 8.1 100.86   -28 Snow
08:00 -14.9 -16.3 89 0.0 15 28 16.1 100.84   -26 Snow
09:00 -14.4 -16.0 88 0.0 14 22 16.1 100.81   -24 LegendNANA
10:00 -13.8 -15.4 88 0.0 13 18 16.1 100.76   -22 LegendNANA
11:00 -13.4 -15.0 88 0.0 14 26 16.1 100.73   -23 LegendNANA
12:00 -13.2 -14.8 88 0.0 14 28 16.1 100.69   -23 Snow
13:00 -12.7 -14.4 88 0.0 13 34 8.1 100.66   -24 Fog
14:00 -12.8 -14.5 87 0.0 13 26 16.1 100.65   -23 LegendNANA
15:00 -12.6 -14.5 86 0.0 14 30 16.1 100.64   -23 LegendNANA
16:00 -12.5 -14.5 85 0.0 13 24 16.1 100.64   -22 LegendNANA
17:00 -13.0 -15.0 85 0.0 14 24 16.1 100.64   -22 LegendNANA
18:00 -13.8 -15.4 88 0.0 14 28 16.1 100.61   -24 LegendNANA
19:00 -15.0 -16.8 87 0.0 12 35 16.1 100.57   -27 LegendNANA
20:00 -15.6 -17.2 88 0.0 14 37 16.1 100.58   -28 Snow
21:00 -16.4 -18.1 87 0.0 15 30 12.9 100.59   -28 Snow
22:00 -17.3 -19.0 87 0.0 13 21 9.7 100.58   -27 Snow
23:00 -18.2 -20.0 86 0.0 15 17 16.1 100.55   -27 LegendNANA

Notes on Data Quality.

Legend

  • E = Estimated
  • M = Missing
  • NA = Not Available*
  • [empty] = Indicates an unobserved value
Date modified: